SCOUT X-4 DEB, 977

Orbit data source: Space-Track

SCOUT X-4 DEB, 977 is space debris in LEO originally from a launch on Sat, 10 Oct 1964 UTC launched from the Air Force Western Test Range (AFWTR). Debris objects in space refer to the collection of defunct objects orbiting the Earth. Examples of debris include non-operational satellites, rocket bodies, and fragments generated from explosions, collisions, or faulty payload assembly.

Loading next visibility...
Identifier
977, 1964-064D
Orbit
LEO
Country
Flag of USUS
Related business
Manufacturer
APL
Mission
Spacecraft
Bus & Motor
Unknown
Mass
Unknown
Launch date (UTC)
1964-10-10 (61 years ago)
Launch vehicle
Unknown
Launch site
Air Force Western Test Range (AFWTR)
Object type
Payload
Rocket body
Debris
Shape & HBR
Unknown shape, 0.1 m
Radar Cross Section
Small (<0.1 m²)

Expand to show TLE details & history
Last TLE update: 16 hours ago

TLE from 16 hours ago
0 SCOUT X-4 DEB
1 00977U 64064D   25353.03475166  .00000283  00000-0  25576-3 0  9994
2 00977  80.0450 340.4666 0125475 264.2467  94.4365 13.79012652 64609
Epoch: 2025-12-19T00:50Z
TLE epoch observation values (Epoch: 2025-12-19T00:50:02.543Z)
Latitude
-0.00011°
Longitude
-119.92571°
Altitude
978.486 km
Speed
7.358 km/s
True Right ascension
22h 41m 51s
True Declination
0° 00' 00"
Sunlit
Object was in daylight at epoch
Visualization orbit readout
Latitude
Unknown
Longitude
Unknown
Altitude
Unknown
Speed
Unknown
Apparent Right ascension
Unknown
Apparent Declination
Unknown
Sunlit
N/A
Visualization observer readout
Local Sidereal Time
15:32:11
Azimuth
Unknown
Elevation
Unknown
Doppler factor
Unknown
Orbital elements
Apogee altitude
1,056.8 km
Perigee altitude
872.533 km
Semi-major axis
7,342.803 km
Eccentricity
0.01255
Inclination
80.045°
RAAN
340.4666°
Arg. of periapsis
264.2467°
True anomaly
95.86814°
Mean anomaly
94.4365°
Eccentric anomaly
95.15251°
Mean motion
3.44945 °/min
Orbital period
104.36 mins
BSTAR
0.00025576
Loading maneuver chart data...
Computing Atmospheric mass density...
Loading historical data...
Loading historical data...
Loading historical data...
Loading historical data...
Loading historical data...
Loading historical data...
Loading historical data...
Other satellites on launch #64 in the year 1964 (1964-10-10 UTC)

Documentation

Showing up to 5 results
|